TITAN 3C TRANSTAGE DEB, 26524

Orbit data source: Space-Track

TITAN 3C TRANSTAGE DEB, 26524 is space debris in HEO originally from a launch on Tue, 21 Dec 1965 UTC launched from the Air Force Eastern Test Range (AFETR). Debris objects in space refer to the collection of defunct objects orbiting the Earth. Examples of debris include non-operational satellites, rocket bodies, and fragments generated from explosions, collisions, or faulty payload assembly.

Loading next visibility...
Identifier
26524, 1965-108AK
Orbit
HEO
Last TLE update
1 month ago
Origin
Manufacturer
Unknown
Mission
Spacecraft
Bus & Motor
Unknown
Mass
Unknown
Launch date (UTC)
1965-12-21 (59 years ago)
Launch vehicle
Unknown
Launch site
Air Force Eastern Test Range (AFETR)
Object type
Payload
Rocket body
Debris
Shape & HBR
Unknown
Radar Cross Section
Medium (>0.1 m² and <1 m²)

Expand to show TLE details & history

TLE from 1 month ago
0 TITAN 3C TRANSTAGE DEB
1 26524U 65108AK  25086.02134642  .00000397  00000-0  54272-2 0  9993
2 26524  26.6986 288.2025 6691499 221.9272 352.4697  2.81253545 31267
Epoch: 2025-03-27T00:30Z
Definitive object data (Epoch: 2025-03-27T00:30:44.33Z)
Latitude
2.30892°
Longitude
-88.79903°
Altitude
1,657.466 km
Speed
8.967 km/s
True Right ascension
06h 54m 20s
True Declination
2° 17' 48"
Sunlit
Object was in daylight at TLE epoch
Visualization TLE readout
Latitude
26.46032°
Longitude
172.74959°
Altitude
24,593.009 km
Speed
2.634 km/s
Apparent Right ascension
00h 45m 41s
Apparent Declination
17° 10' 60"
Sunlit
Object is in daylight
Visualization observer readout
Local Sidereal Time
15:18:57
Azimuth
39.935° NE
Elevation
-22.664°
Doppler factor
1
Orbital elements
Apogee altitude
29,013.807 km
Perigee altitude
637.068 km
Semi-major axis
21,203.574 km
Eccentricity
0.6691499
Inclination
26.6986°
RAAN
288.2025°
Arg. of periapsis
221.9272°
True anomaly
313.38397°
Mean anomaly
352.4697°
Eccentric anomaly
338.28363°
Mean motion
0.70296 °/min
BSTAR
0.0054272
Orbital period
512.12 mins
Loading maneuver chart data...
Loading SW <> Apogee altitude chart data...

TITAN 3C TRANSTAGE DEB Visibility forecast

Observer location: undefined°, undefined°

Span
Click to sort rows by Start time (UTC) header in descending order
Start Az.
Max El. time (UTC)
Max El. Az.
Max El.
End time (UTC)
End Az.
451 mins2025-05-09 10:11:00.658Z203.003° SW2025-05-09 15:13:00.658Z154.121° SSE43.565°2025-05-09 17:42:00.658Z117.582° SE
|